User: anonymous   Login
Location: Unspecified
(40.7945°N, 0.0000°E)
Time: 18:52:40
(UTC+00:00)
Language:

UWE-3 - Orbit

View from above orbital plane
View from above orbital plane
View from above satellite
View from above satellite

Ground track
Ground track

The orbit data is extracted from the following two-line orbital elements,

1 39446U 13066AG  21163.48526093  .00000207  00000-0  34017-4 0  9990
2 39446  97.6364 140.0123 0068681 214.4825 145.1922 14.78786359405774
Epoch (UTC): 12 June 2021 11:38:46
Eccentricity: 0.0068681
inclination: 97.6364°
perigee height: 585 km
apogee height: 681 km
right ascension of ascending node: 140.0123°
argument of perigee: 214.4825°
revolutions per day: 14.78786359
mean anomaly at epoch: 145.1922°
orbit number at epoch: 40577

The dashed part of the orbit path shows where the satellite is in the earth's shadow,  

DLR